Regional Weather Roundup
Issued by NWS

Home | Current Version | Previous Version | Text Only | Print | Product List | Glossary On
Versions: 1 2 3 4 5 6 7 8 9 10 11 12 13 14 15 16 17 18 19 20 21 22 23 24 25 26 27 28 29 30 31 32 33 34 35 36 37 38 39 40 41 42 43 44 45 46 47 48 49 50
000
ASCA44 KEWX 231320
RWRMX

LATIN AMERICA AND CARIBBEAN REGIONAL WEATHER ROUNDUP
NATIONAL WEATHER SERVICE AUSTIN/SAN ANTONIO TX
800 AM CDT WED APR 23 2014

NOTE: "FAIR" INDICATED FEW OR NO CLOUDS BELOW 12,000 FEET WITH NO
SIGNIFICANT WEATHER AND/OR OBSTRUCTIONS TO VISIBILITY.

BAJA CALIFORNIA

CITY           SKY/WX    TMP DP  RH WIND       PRES   REMARKS
LORETO         MOCLDY    75  55  50 W9        29.79
MEXICALI       CLEAR     57  34  41 N8        29.80
TIJUANA        CLOUDY    55  46  71 E3        29.96R

NORTHWESTERN MEXICO

CITY           SKY/WX    TMP DP  RH WIND       PRES   REMARKS
DURANGO        CLEAR     54  39  58 SE5       30.16

NORTHEASTERN MEXICO

CITY           SKY/WX    TMP DP  RH WIND       PRES   REMARKS
CHIHUAHUA      CLEAR     55  28  35 W8        29.98
MATAMOROS      SUNNY     68  68 100 CALM      29.93
MONCLOVA       CLEAR     70  59  68 SW6       29.85
MONTERREY      CLOUDY    68  66  94 CALM      29.89R FOG
NUEVO LAREDO   CLOUDY    72  66  83 SE6       29.89
PIEDRAS NEGRAS MOSUNNY   68  54  60 SE7       29.88
REYNOSA        CLOUDY    68  64  88 SE6       29.90
SALTILLO       CLEAR     68  48  49 SE12      30.08S
TORREON        CLEAR     66  43  42 CALM      29.99R
CD. VICTORIA   MOSUNNY   70  68  94 SE8       29.89

WESTERN MEXICO

CITY           SKY/WX    TMP DP  RH WIND       PRES   REMARKS
AGUASCALIENTES CLEAR     52  36  54 NW6       30.21
COLIMA         CLEAR     70  63  78 CALM      29.96R
DEL BAJIO      PTCLDY    57  50  77 CALM      30.21S
GUADALAJARA    CLEAR     54  37  54 NW5       30.13
MANZANILLO     MOCLDY    72  63  73 N7        29.81
MAZATLAN       PTCLDY    61  52  72 N9        29.84R
P. VALLARTA    CLEAR     61  55  82 CALM      29.83R
URUAPAN        PTCLDY    55  50  82 CALM      30.17R
ZACATECAS      CLEAR     50  37  62 S8        30.22R WCI  47

CENTRAL MEXICO

CITY           SKY/WX    TMP DP  RH WIND       PRES   REMARKS
CUERNAVACA     PTCLDY    66  46  48 NW5       30.11
MEXICO CITY    PTSUNNY   57  50  77 SE5       30.32R
MORELIA        PTCLDY    52  46  82 CALM      30.22
POZA RICA      FOG       72  70  94 E9          N/A  VSB 1
PUEBLA         MOSUNNY   50  45  81 CALM      30.32R
QUERETARO      PTCLDY    55  50  82 NE12      30.27S
S. LUIS POTOSI CLEAR     54  52  94 CALM      30.19R FOG
TAMPICO        MOSUNNY   72  70  94 E6        29.90R
TOLUCA         PTCLDY    48  43  81 CALM      30.38R

SOUTHERN MEXICO

CITY           SKY/WX    TMP DP  RH WIND       PRES   REMARKS
ACAPULCO       PTCLDY    77  72  83 CALM      29.85R
B. DE HUATULCO MOSUNNY   77  66  69 CALM      29.89
OAXACA         PTSUNNY   63  50  63 N6        30.21R
P. ESCONDIDO   MOSUNNY   81  66  61 E9        29.97F
VERACRUZ       SUNNY     72  70  94 SW3       29.92R
ZIHUATANEJO    PTCLDY    77  66  69 CALM      29.86R

YUCATAN PENINSULA

CITY           SKY/WX    TMP DP  RH WIND       PRES   REMARKS
CAMPECHE       PTSUNNY   73  66  78 CALM      29.90R
CANCUN         MOSUNNY   70  64  83 N3        29.96R
CHETUMAL       MOSUNNY   79  72  78 CALM      29.92R
CD. DEL CARMEN MOSUNNY   81  73  78 N7        29.89
COZUMEL        MOSUNNY   72  66  83 CALM      29.95R
MERIDA         PTSUNNY   75  64  69 E13       29.94R
MINATITLAN     PTSUNNY   75  64  69 CALM      29.91
TAPACHULA      PTSUNNY   79  72  78 CALM      29.87R
TUX. GUTIERREZ PTSUNNY   73  66  78 CALM      29.96R
VILLAHERMOSA   FOG       75  73  94 CALM      29.93R VSB 1

CENTRAL AMERICA

CITY           SKY/WX    TMP DP  RH WIND       PRES   REMARKS

CARIBBEAN

CITY           SKY/WX    TMP DP  RH WIND       PRES   REMARKS
ARUBA          MOSUNNY   84  73  70 E25       29.86S HX  91
CURACAO        PTSUNNY   84  75  74 E16       29.92S HX  92
KINGSTON       MOSUNNY   32  32 100 S5        29.92S WCI  27
NASSAU         MOSUNNY   77  68  73 S6        29.96R
SAN JUAN       MOSUNNY   86  70  58 SE9       29.98R HX  90
SANTO DOMINGO  PTSUNNY   79  73  83 SE5       29.97R
ST. CROIX      MOSUNNY   84  72  65 S8        30.01R
ST. KITTS      MOSUNNY   81  73  78 S9        30.00S
ST. MAARTEN    MOSUNNY   82  73  74 VRB3      30.00S
ST. THOMAS     MOSUNNY   82  75  78 S7        29.99R

$$




USA.gov is the U.S. government's official web portal to all federal, state and local government web resources and services.